Time,TemperatureF,DewpointF,PressureIn,WindDirection,WindDirectionDegrees,WindSpeedMPH,WindSpeedGustMPH,Humidity,HourlyPrecipIn,Conditions,Clouds,dailyrainin,SoftwareType,DateUTC
2013-03-05 10:11:00,47.0,36.0,29.78,South,191,6.0,15.0,66,0.00,,,0.00,,2013-03-05 09:11:00,
2013-03-05 10:21:00,48.0,37.0,29.78,SSW,208,9.0,17.0,65,0.00,,,0.00,,2013-03-05 09:21:00,
2013-03-05 10:31:00,48.0,36.0,29.78,SW,216,9.0,17.0,64,0.00,,,0.00,,2013-03-05 09:31:00,
2013-03-05 10:42:00,48.0,36.0,29.78,SW,216,9.0,17.0,64,0.00,,,0.00,,2013-03-05 09:42:00,
2013-03-05 10:52:00,49.0,37.0,29.78,SSW,212,10.0,18.0,62,0.00,,,0.00,,2013-03-05 09:52:00,
2013-03-05 11:01:00,50.0,38.0,29.78,WSW,252,5.0,18.0,62,0.00,,,0.00,,2013-03-05 10:01:00,
2013-03-05 11:11:00,50.0,38.0,29.78,WSW,252,5.0,18.0,62,0.00,,,0.00,,2013-03-05 10:11:00,
2013-03-05 11:21:00,51.0,37.0,29.77,WSW,254,10.0,18.0,59,0.00,,,0.00,,2013-03-05 10:21:00,
2013-03-05 11:32:00,52.0,38.0,29.77,SW,236,7.0,15.0,59,0.00,,,0.00,,2013-03-05 10:32:00,
2013-03-05 11:41:00,52.0,38.0,29.77,SW,236,7.0,15.0,59,0.00,,,0.00,,2013-03-05 10:41:00,
2013-03-05 11:52:00,52.0,38.0,29.77,WSW,249,14.0,22.0,58,0.00,,,0.00,,2013-03-05 10:52:00,
2013-03-05 12:01:00,53.0,39.0,29.77,WSW,250,10.0,20.0,58,0.00,,,0.00,,2013-03-05 11:01:00,
2013-03-05 12:11:00,53.0,39.0,29.77,WSW,250,10.0,20.0,58,0.00,,,0.00,,2013-03-05 11:11:00,
2013-03-05 12:21:00,54.0,38.0,29.76,WSW,247,13.0,21.0,55,0.00,,,0.00,,2013-03-05 11:21:00,
2013-03-05 12:32:00,54.0,38.0,29.76,WSW,246,15.0,24.0,55,0.00,,,0.00,,2013-03-05 11:32:00,
2013-03-05 12:41:00,54.0,38.0,29.76,WSW,246,15.0,24.0,55,0.00,,,0.00,,2013-03-05 11:41:00,
2013-03-05 12:52:00,55.0,39.0,29.76,WSW,243,10.0,21.0,54,0.00,,,0.00,,2013-03-05 11:52:00,
2013-03-05 13:02:00,55.0,38.0,29.75,WSW,242,14.0,22.0,53,0.00,,,0.00,,2013-03-05 12:02:00,
2013-03-05 13:11:00,55.0,38.0,29.75,WSW,242,14.0,22.0,53,0.00,,,0.00,,2013-03-05 12:11:00,
2013-03-05 13:22:00,56.0,38.0,29.75,WSW,241,13.0,21.0,51,0.00,,,0.00,,2013-03-05 12:22:00,
2013-03-05 13:32:00,56.0,38.0,29.75,SSW,212,11.0,22.0,50,0.00,,,0.00,,2013-03-05 12:32:00,
2013-03-05 13:42:00,56.0,38.0,29.75,SSW,212,11.0,22.0,50,0.00,,,0.00,,2013-03-05 12:42:00,
2013-03-05 13:52:00,58.0,38.0,29.74,WSW,246,8.0,20.0,47,0.00,,,0.00,,2013-03-05 12:52:00,
2013-03-05 14:01:00,57.0,36.0,29.74,West,263,13.0,21.0,46,0.00,,,0.00,,2013-03-05 13:01:00,
2013-03-05 14:11:00,57.0,36.0,29.74,West,263,13.0,21.0,46,0.00,,,0.00,,2013-03-05 13:11:00,
2013-03-05 14:21:00,58.0,37.0,29.73,WSW,252,13.0,20.0,46,0.00,,,0.00,,2013-03-05 13:21:00,
2013-03-05 14:31:00,58.0,37.0,29.72,WSW,246,13.0,20.0,45,0.00,,,0.00,,2013-03-05 13:31:00,
2013-03-05 14:42:00,58.0,37.0,29.72,WSW,246,13.0,20.0,45,0.00,,,0.00,,2013-03-05 13:42:00,
2013-03-05 14:52:00,59.0,38.0,29.72,WSW,242,11.0,20.0,45,0.00,,,0.00,,2013-03-05 13:52:00,
2013-03-05 15:02:00,59.0,36.0,29.72,SSW,202,9.0,17.0,42,0.00,,,0.00,,2013-03-05 14:02:00,
2013-03-05 15:11:00,59.0,36.0,29.72,SSW,202,9.0,17.0,42,0.00,,,0.00,,2013-03-05 14:11:00,
2013-03-05 15:21:00,60.0,37.0,29.71,WSW,239,13.0,20.0,42,0.00,,,0.00,,2013-03-05 14:21:00,
2013-03-05 15:31:00,60.0,37.0,29.71,SW,230,12.0,20.0,42,0.00,,,0.00,,2013-03-05 14:31:00,
2013-03-05 15:41:00,60.0,37.0,29.71,SW,230,12.0,20.0,42,0.00,,,0.00,,2013-03-05 14:41:00,
2013-03-05 15:52:00,60.0,37.0,29.70,SSW,196,13.0,22.0,43,0.00,,,0.00,,2013-03-05 14:52:00,
2013-03-05 16:01:00,60.0,38.0,29.70,SW,224,10.0,18.0,44,0.00,,,0.00,,2013-03-05 15:01:00,
2013-03-05 16:11:00,60.0,38.0,29.70,SW,224,10.0,18.0,44,0.00,,,0.00,,2013-03-05 15:11:00,
2013-03-05 16:21:00,60.0,39.0,29.70,SW,235,6.0,13.0,46,0.00,,,0.00,,2013-03-05 15:21:00,
2013-03-05 16:31:00,59.0,39.0,29.69,WSW,248,6.0,13.0,47,0.00,,,0.00,,2013-03-05 15:31:00,
2013-03-05 16:42:00,59.0,39.0,29.69,WSW,248,6.0,13.0,47,0.00,,,0.00,,2013-03-05 15:42:00,
2013-03-05 16:52:00,59.0,40.0,29.69,WSW,247,5.0,12.0,49,0.00,,,0.00,,2013-03-05 15:52:00,
2013-03-05 17:01:00,59.0,40.0,29.68,SW,232,5.0,12.0,49,0.00,,,0.00,,2013-03-05 16:01:00,
2013-03-05 17:11:00,59.0,40.0,29.68,SW,232,5.0,12.0,49,0.00,,,0.00,,2013-03-05 16:11:00,
2013-03-05 17:21:00,59.0,40.0,29.68,SW,220,3.0,9.0,49,0.00,,,0.00,,2013-03-05 16:21:00,
2013-03-05 17:31:00,59.0,40.0,29.68,SW,215,2.0,8.0,49,0.00,,,0.00,,2013-03-05 16:31:00,
2013-03-05 17:41:00,59.0,40.0,29.68,SW,215,2.0,8.0,49,0.00,,,0.00,,2013-03-05 16:41:00,
2013-03-05 17:52:00,59.0,40.0,29.68,SW,214,1.0,5.0,49,0.00,,,0.00,,2013-03-05 16:52:00,
2013-03-05 18:01:00,59.0,39.0,29.67,SSW,207,4.0,9.0,48,0.00,,,0.00,,2013-03-05 17:01:00,
2013-03-05 18:11:00,59.0,39.0,29.67,SSW,207,4.0,9.0,48,0.00,,,0.00,,2013-03-05 17:11:00,
2013-03-05 18:21:00,59.0,39.0,29.67,SW,220,2.0,6.0,47,0.00,,,0.00,,2013-03-05 17:21:00,
2013-03-05 18:32:00,59.0,39.0,29.67,South,172,3.0,6.0,47,0.00,,,0.00,,2013-03-05 17:32:00,
2013-03-05 18:41:00,59.0,39.0,29.67,South,172,3.0,6.0,47,0.00,,,0.00,,2013-03-05 17:41:00,
2013-03-05 18:52:00,57.0,39.0,29.67,SSE,163,3.0,5.0,51,0.00,,,0.00,,2013-03-05 17:52:00,
2013-03-05 19:01:00,57.0,39.0,29.67,SSE,163,3.0,5.0,51,0.00,,,0.00,,2013-03-05 18:01:00,
2013-03-05 19:11:00,57.0,39.0,29.67,SSE,163,3.0,5.0,51,0.00,,,0.00,,2013-03-05 18:11:00,
2013-03-05 19:21:00,57.0,39.0,29.68,SSE,163,5.0,6.0,51,0.00,,,0.00,,2013-03-05 18:21:00,
2013-03-05 19:31:00,56.0,39.0,29.68,SSE,161,3.0,6.0,52,0.00,,,0.00,,2013-03-05 18:31:00,
2013-03-05 19:41:00,56.0,39.0,29.68,SSE,161,3.0,6.0,52,0.00,,,0.00,,2013-03-05 18:41:00,
2013-03-05 19:53:00,55.0,40.0,29.68,SE,132,3.0,5.0,56,0.00,,,0.00,,2013-03-05 18:53:00,
2013-03-05 20:01:00,54.0,39.0,29.69,SE,136,6.0,7.0,57,0.00,,,0.00,,2013-03-05 19:01:00,
2013-03-05 20:11:00,54.0,39.0,29.69,SE,136,6.0,7.0,57,0.00,,,0.00,,2013-03-05 19:11:00,
2013-03-05 20:21:00,56.0,40.0,29.69,South,179,3.0,5.0,54,0.00,,,0.00,,2013-03-05 19:21:00,
2013-03-05 20:31:00,56.0,40.0,29.69,South,185,3.0,7.0,54,0.00,,,0.00,,2013-03-05 19:31:00,
2013-03-05 20:41:00,56.0,40.0,29.69,South,185,3.0,7.0,54,0.00,,,0.00,,2013-03-05 19:41:00,
2013-03-05 20:52:00,55.0,39.0,29.69,South,184,2.0,7.0,55,0.00,,,0.00,,2013-03-05 19:52:00,
2013-03-05 21:01:00,55.0,39.0,29.69,SSW,199,2.0,6.0,55,0.00,,,0.00,,2013-03-05 20:01:00,
2013-03-05 21:11:00,55.0,39.0,29.68,SSW,202,3.0,8.0,55,0.00,,,0.00,,2013-03-05 20:11:00,
2013-03-05 21:21:00,55.0,39.0,29.68,SSW,202,3.0,8.0,55,0.00,,,0.00,,2013-03-05 20:21:00,
2013-03-05 21:32:00,54.0,39.0,29.68,South,186,4.0,7.0,56,0.00,,,0.00,,2013-03-05 20:32:00,
2013-03-05 21:41:00,54.0,39.0,29.68,South,186,4.0,7.0,56,0.00,,,0.00,,2013-03-05 20:41:00,
2013-03-05 21:52:00,54.0,39.0,29.68,South,180,2.0,5.0,57,0.00,,,0.00,,2013-03-05 20:52:00,
2013-03-05 22:01:00,53.0,39.0,29.69,SSE,153,4.0,5.0,58,0.00,,,0.00,,2013-03-05 21:01:00,